1289347231518,1.34214
1289347291518,1.33566
1289347351518,1.34342
1289347411518,1.34426
1289347471518,1.33009
1289347531518,1.33586
1289347591518,1.35520
1289347651518,1.33844
1289347711518,1.33690
1289347771518,1.34052
1289347831518,1.34441
1289347891518,1.33053
1289347951518,1.33572
1289348011518,1.33105
1289348071518,1.33481
1289348131518,1.33478
1289348191518,1.33115
1289348251518,1.33003
1289348311518,1.32924
1289348371518,1.33245
1289348431518,1.36858
1289348491518,1.33504
1289348551518,1.32545
1289348611518,1.34337
1289348671518,1.32014
1289348731518,1.33511
1289348791518,1.32258
1289348851518,1.31677
1289348911518,1.32507
1289348971518,1.31516
1289349031518,1.32669
1289349091518,1.31234
1289349151518,1.32524
1289349211518,1.33688
1289349271518,1.31254
1289349331518,1.31311
1289349391518,1.32321
1289349451518,1.32471
1289349511518,1.32962
1289349571518,1.33042
1289349631518,1.32579
1289349691518,1.32522
1289349751518,1.31853
1289349811518,1.33412
1289349871518,1.32216
1289349931518,1.31934
1289349991518,1.32235
1289350051518,1.31438
1289350111518,1.32365
1289350171518,1.31078
1289350231518,1.32597
1289350291518,1.32337
1289350351518,1.32180
1289350411518,1.32195
1289350471518,1.31728
1289350531518,1.31889
1289350591518,1.32192
1289350651518,1.31472
1289350711518,1.32823
1289350771518,1.32140
1289350831528,1.32180
1289350891528,1.32183
1289350951528,1.31973
1289351011528,1.32373
1289351071528,1.32648
1289351131528,1.31725
1289351191528,1.31623
1289351251528,1.32552
1289351311528,1.32979
1289351371528,1.33521
1289351431528,1.32202
1289351491528,1.31992
1289351551528,1.32618
1289351611528,1.32349
1289351671528,1.33024
1289351731528,1.31648
1289351791528,1.31828
1289351851528,1.30324
1289351911528,1.32264
1289351971528,1.32754
1289352031528,1.32394
1289352091528,1.32846
1289352151528,1.32081
1289352211528,1.33556
1289352271528,1.32758
1289352331528,1.32513
1289352391528,1.32449
1289352451528,1.32555
1289352511528,1.32229
1289352571528,1.32457
1289352631528,1.32609
1289352691528,1.32926
1289352751528,1.32865
1289352811528,1.33826
1289352871528,1.32863
1289352931528,1.31741
1289352991528,1.32264
1289353051528,1.32067
1289353111528,1.32250
1289353171528,1.31828
1289353231528,1.32406
1289353291528,1.32144
1289353351528,1.31583
1289353411528,1.32229
1289353471528,1.31428
1289353531528,1.32182
1289353591528,1.32916
1289353651528,1.33256
1289353711528,1.32657
1289353771528,1.32894
1289353831528,1.32368
1289353891528,1.38150
1289353951528,1.32429
1289354011528,1.32049
1289354071528,1.31950
1289354131528,1.32063
1289354191528,1.32870
1289354251528,1.31300
1289354311528,1.31881
1289354371528,1.31425
1289354431538,1.31519
1289354491538,1.31848
1289354551538,1.31772
1289354611538,1.31199
1289354671538,1.31856
1289354731538,1.31727
1289354791538,1.30774
1289354851538,1.30975
1289354911538,1.30487
1289354971538,1.29975
1289355031538,1.31300
1289355091538,1.30483
1289355151538,1.31327
1289355211538,1.30481
1289355271538,1.31227
1289355331538,1.30501
1289355391538,1.31349
1289355451538,1.31517
1289355511538,1.30654
1289355571538,1.29945
1289355631538,1.30863
1289355691538,1.30572
1289355751538,1.30730
1289355811538,1.30632
1289355871538,1.31246
1289355931538,1.31904
1289355991538,1.31372
1289356051538,1.30909
1289356111538,1.30723
1289356171538,1.30918
1289356231538,1.31288
1289356291538,1.31605
1289356351538,1.31476
1289356411538,1.31404
1289356471538,1.31602
1289356531538,1.31449
1289356591538,1.30468
1289356651538,1.31278
1289356711538,1.31824
1289356771538,1.30937
1289356831538,1.31101
1289356891538,1.31927
1289356951538,1.31128
1289357011538,1.31935
1289357071538,1.30950
1289357131538,1.31013
1289357191538,1.30543
1289357251538,1.31414
1289357311538,1.31577
1289357371538,1.29938
1289357431538,1.31003
1289357491538,1.31261
1289357551538,1.31246
1289357611538,1.31422
1289357671538,1.31068
1289357731538,1.31328
1289357791538,1.30801
1289357851538,1.31096
1289357911538,1.31250
1289357971538,1.31964
1289358031548,1.30907
1289358091548,1.31245
1289358151548,1.32890
1289358211547,1.30997
1289358271547,1.30903
1289358331547,1.31093
1289358391547,1.31775
1289358451548,1.31218
1289358511548,1.31278
1289358571548,1.31160
1289358631548,1.31811
1289358691548,1.31843
1289358751548,1.31844
1289358811548,1.31554
1289358871548,1.31146
1289358931548,1.31393
1289358991548,1.30307
1289359051548,1.30250
1289359111548,1.30628
1289359171548,1.30918
1289359231548,1.31506
1289359291548,1.31901
1289359351548,1.30430
1289359411548,1.31550
1289359471548,1.31082
1289359531547,1.31757
1289359591547,1.31899
1289359651547,1.31353
1289359711547,1.31288
1289359771547,1.31877
1289359831548,1.31294
1289359891548,1.31551
1289359951548,1.31752
1289360011548,1.32905
1289360071548,1.31310
1289360131548,1.31195
1289360191548,1.31870
1289360251548,1.31791
1289360311548,1.32081
1289360371548,1.31313
1289360431548,1.31744
1289360491548,1.32155
1289360551548,1.31192
1289360611548,1.31649
1289360671548,1.31382
1289360731548,1.31975
1289360791548,1.32094
1289360851548,1.31983
1289360911547,1.35118
1289360971547,1.32244
1289361031547,1.33696
1289361091547,1.32444
1289361151548,1.33113
1289361211548,1.32242
1289361271548,1.34241
1289361331548,1.32065
1289361391548,1.33339
1289361451548,1.33072
1289361511548,1.33609
1289361571548,1.33652
1289361631557,1.33015
1289361691557,1.33296
1289361751557,1.32317
1289361811557,1.32905
1289361871557,1.34522
1289361931557,1.34414
1289361991557,1.33569
1289362051557,1.33418
1289362111557,1.33982
1289362171557,1.33724
1289362231557,1.33819
1289362291557,1.33588
1289362351557,1.35036
1289362411557,1.34371
1289362471557,1.34952
1289362531557,1.34617
1289362591557,1.35112
1289362651557,1.34941
1289362711557,1.43857
1289362771557,1.34715
1289362831557,1.35425
1289362891557,1.36029
1289362951557,1.35046
1289363011557,1.34661
1289363071557,1.34930
1289363131557,1.35576
1289363191557,1.37001
1289363251557,1.35419
1289363311557,1.35850
1289363371557,1.35749
1289363431557,1.35310
1289363491557,1.35034
1289363551557,1.35480
1289363611557,1.36156
1289363671557,1.34974
1289363731557,1.35402
1289363791557,1.35337
1289363851557,1.36536
1289363911557,1.36624
1289363971557,1.36405
1289364031557,1.37258
1289364091557,1.36214
1289364151557,1.35786
1289364211557,1.36418
1289364271557,1.35927
1289364331557,1.35310
1289364391557,1.36590
1289364451557,1.35649
1289364511557,1.35358
1289364571557,1.36310
1289364631557,1.36442
1289364691557,1.35788
1289364751557,1.35927
1289364811557,1.35030
1289364871557,1.34688
1289364931557,1.35014
1289364991557,1.37126
1289365051557,1.35844
1289365111557,1.35094
1289365171557,1.35543
1289365231567,1.35551
1289365291567,1.34520
1289365351567,1.35860
1289365411567,1.35331
1289365471567,1.35267
1289365531567,1.36311
1289365591567,1.35786
1289365651567,1.35805
1289365711567,1.36416
1289365771567,1.34913
1289365831567,1.37261
1289365891567,1.35869
1289365951567,1.35593
1289366011567,1.35754
1289366071567,1.35755
1289366131567,1.35669
1289366191567,1.35440
1289366251567,1.36063
1289366311567,1.35575
1289366371567,1.34909
1289366431567,1.36135
1289366491567,1.34682
1289366551567,1.34535
1289366611567,1.35711
1289366671567,1.34438
1289366731567,1.34869
1289366791567,1.35958
1289366851567,1.35230
1289366911567,1.34728
1289366971567,1.35721
1289367031567,1.35689
1289367091567,1.34875
1289367151567,1.34660
1289367211567,1.34617
1289367271567,1.35196
1289367331567,1.35021
1289367391567,1.33896
1289367451567,1.34329
1289367511567,1.34117
1289367571567,1.34330
1289367631567,1.34614
1289367691567,1.33035
1289367751567,1.33325
1289367811567,1.33599
1289367871567,1.34489
1289367931567,1.33606
1289367991567,1.33950
1289368051567,1.33207
1289368111567,1.34056
1289368171567,1.33795
1289368231567,1.35789
1289368291567,1.33404
1289368351567,1.32265
1289368411567,1.33342
1289368471567,1.32955
1289368531567,1.34220
1289368591567,1.40410
1289368651567,1.32893
1289368711567,1.33139
1289368771567,1.32428
1289368831577,1.32829
1289368891577,1.32102
1289368951577,1.32259
1289369011577,1.33475
1289369071577,1.32868
1289369131577,1.32547
1289369191578,1.33303
1289369251577,1.32231
1289369311577,1.32345
1289369371577,1.32317
1289369431577,1.32664
1289369491577,1.32634
1289369551577,1.32022
1289369611577,1.32260
1289369671577,1.28342
1289369731577,1.31452
1289369791577,1.33151
1289369851577,1.31190
1289369911577,1.31982
1289369971577,1.31645
1289370031577,1.31373
1289370091577,1.31626
1289370151577,1.31455
1289370211577,1.31391
1289370271577,1.31527
1289370331577,1.29882
1289370391577,1.31432
1289370451577,1.31805
1289370511578,1.31987
1289370571577,1.31194
1289370631577,1.32066
1289370691577,1.31581
1289370751577,1.30767
1289370811577,1.30766
1289370871577,1.30844
1289370931577,1.30829
1289370991577,1.29939
1289371051577,1.32442
1289371111577,1.31501
1289371171577,1.30437
1289371231577,1.31455
1289371291577,1.30774
1289371351577,1.31100
1289371411577,1.30259
1289371471577,1.30656
1289371531577,1.31162
1289371591577,1.30800
1289371651577,1.30460
1289371711577,1.30582
1289371771577,1.31077
1289371831577,1.31439
1289371891578,1.30746
1289371951577,1.31678
1289372011577,1.30246
1289372071577,1.31657
1289372131577,1.30819
1289372191577,1.30280
1289372251577,1.30688
1289372311577,1.31061
1289372371577,1.31176
1289372431588,1.30060
1289372491588,1.29405
1289372551588,1.31493
1289372611588,1.31247
1289372671588,1.31117
1289372731588,1.30771
1289372791588,1.29951
1289372851588,1.30121
1289372911588,1.30481
1289372971588,1.33899
1289373031588,1.31251
1289373091588,1.30905
1289373151588,1.30543
1289373211588,1.30070
1289373271588,1.30586
1289373331588,1.31044
1289373391588,1.31023
1289373451588,1.30534
1289373511588,1.30070
1289373571588,1.30936
1289373631588,1.31190
1289373691588,1.30696
1289373751588,1.30744
1289373811588,1.30690
1289373871588,1.31486
1289373931588,1.30329
1289373991588,1.30361
1289374051588,1.30238
1289374111588,1.30139
1289374171588,1.30494
1289374231588,1.31040
1289374291588,1.30925
1289374351588,1.29789
1289374411588,1.30962
1289374471588,1.31348
1289374531588,1.30958
1289374591588,1.29907
1289374651588,1.30354
1289374711588,1.31050
1289374771588,1.31519
1289374831588,1.31250
1289374891588,1.31075
1289374951588,1.31658
1289375011588,1.30912
1289375071588,1.31141
1289375131588,1.31928
1289375191588,1.31831
1289375251588,1.31017
1289375311588,1.30487
1289375371588,1.30974
1289375431588,1.31606
1289375491588,1.30377
1289375551588,1.32501
1289375611588,1.31220
1289375671588,1.29765
1289375731588,1.30405
1289375791588,1.30627
1289375851588,1.30830
1289375911588,1.30420
1289375971588,1.30981
1289376031598,1.30411
1289376091598,1.30977
1289376151598,1.31052
1289376211598,1.30650
1289376271598,1.31498
1289376331598,1.30484
1289376391598,1.30991
1289376451598,1.30035
1289376511598,1.30644
1289376571598,1.31011
1289376631598,1.32429
1289376691598,1.29722
1289376751598,1.30190
1289376811598,1.30056
1289376871598,1.30235
1289376931598,1.31155
1289376991599,1.30925
1289377051599,1.30216
1289377111599,1.30034
1289377171599,1.30031
1289377231599,1.30156
1289377291599,1.31431
1289377351598,1.31155
1289377411598,1.30787
1289377471598,1.31676
1289377531598,1.30541
1289377591598,1.30188
1289377651598,1.29892
1289377711598,1.32667
1289377771598,1.29902
1289377831598,1.31594
1289377891598,1.30196
1289377951598,1.30657
1289378011598,1.30416
1289378071598,1.30314
1289378131598,1.29694
1289378191598,1.29817
1289378251598,1.31013
1289378311598,1.30547
1289378371599,1.31209
1289378431599,1.30406
1289378491599,1.30055
1289378551599,1.31215
1289378611599,1.31074
1289378671599,1.30283
1289378731598,1.31016
1289378791598,1.30957
1289378851598,1.29842
1289378911598,1.31051
1289378971598,1.30459
1289379031598,1.30760
1289379091598,1.30926
1289379151598,1.30181
1289379211598,1.30878
1289379271598,1.32350
1289379331598,1.30569
1289379391598,1.30031
1289379451598,1.30444
1289379511598,1.30217
1289379571598,1.30462
1289379631609,1.30984
1289379691609,1.30454
1289379751609,1.29985
1289379811609,1.31100
1289379871609,1.30904
1289379931609,1.30534
1289379991609,1.31246
1289380051609,1.30113
1289380111609,1.30825
1289380171609,1.31924
1289380231609,1.31242
1289380291609,1.31851
1289380351609,1.31010
1289380411609,1.30633
1289380471609,1.30081
1289380531609,1.30830
1289380591609,1.30594
1289380651609,1.30809
1289380711609,1.30324
1289380771609,1.30846
1289380831609,1.31027
1289380891609,1.30382
1289380951609,1.31875
1289381011609,1.30942
1289381071609,1.30266
1289381131609,1.30093
1289381191609,1.29324
1289381251609,1.29967
1289381311609,1.31135
1289381371609,1.29759
1289381431609,1.29964
1289381491609,1.30596
1289381551609,1.37210
1289381611609,1.32006
1289381671609,1.29668
1289381731609,1.31576
1289381791609,1.30208
1289381851609,1.30737
1289381911609,1.31301
1289381971609,1.31132
1289382031609,1.30383
1289382091609,1.30451
1289382151609,1.30339
1289382211609,1.31292
1289382271609,1.30842
1289382331609,1.31152
1289382391609,1.31146
1289382451609,1.32614
1289382511609,1.36014
1289382571609,1.31066
1289382631609,1.31161
1289382691609,1.29998
1289382751609,1.30525
1289382811609,1.30233
1289382871609,1.32702
1289382931609,1.31087
1289382991609,1.30993
1289383051609,1.30415
1289383111609,1.31890
1289383171609,1.31328
1289383231621,1.31492
1289383291621,1.31354
1289383351621,1.32011
1289383411621,1.30803
1289383471621,1.30402
1289383531621,1.30758
1289383591621,1.30395
1289383651621,1.30371
1289383711621,1.30257
1289383771621,1.30760
1289383831621,1.30548
1289383891621,1.31036
1289383951621,1.30764
1289384011621,1.31738
1289384071621,1.30208
1289384131621,1.31604
1289384191621,1.31174
1289384251621,1.30816
1289384311621,1.31836
1289384371621,1.30598
1289384431621,1.31173
1289384491621,1.31183
1289384551621,1.32700
1289384611621,1.30817
1289384671621,1.32304
1289384731621,1.31632
1289384791621,1.31122
1289384851621,1.31031
1289384911621,1.30157
1289384971621,1.30577
1289385031621,1.30885
1289385091621,1.30581
1289385151621,1.31306
1289385211621,1.30412
1289385271621,1.31296
1289385331621,1.30764
1289385391621,1.30539
1289385451621,1.31694
1289385511621,1.31912
1289385571621,1.31211
1289385631621,1.31095
1289385691621,1.31004
1289385751621,1.30061
1289385811621,1.31113
1289385871621,1.30607
1289385931621,1.30731
1289385991621,1.31632
1289386051621,1.31067
1289386111621,1.30910
1289386171621,1.31200
1289386231621,1.30588
1289386291621,1.32083
1289386351621,1.30512
1289386411621,1.31507
1289386471621,1.30906
1289386531621,1.30706
1289386591621,1.30357
1289386651621,1.31280
1289386711621,1.32203
1289386771621,1.30524
1289386831632,1.31962
1289386891632,1.31860
1289386951632,1.31593
1289387011632,1.30187
1289387071632,1.30542
1289387131632,1.31466
1289387191632,1.31686
1289387251632,1.31540
1289387311632,1.31679
1289387371632,1.31167
1289387431632,1.30592
1289387491632,1.31363
1289387551632,1.30662
1289387611632,1.31399
1289387671632,1.31142
1289387731632,1.30760
1289387791632,1.31642
1289387851632,1.32128
1289387911632,1.30801
1289387971632,1.30562
1289388031632,1.31030
1289388091632,1.31378
1289388151632,1.31213
1289388211632,1.31674
1289388271632,1.30786
1289388331632,1.30284
1289388391632,1.30755
1289388451632,1.30885
1289388511632,1.30683
1289388571632,1.30976
1289388631632,1.30611
1289388691632,1.31785
1289388751632,1.30777
1289388811632,1.39583
1289388871632,1.31891
1289388931632,1.31485
1289388991632,1.30859
1289389051632,1.31269
1289389111632,1.30849
1289389171632,1.29927
1289389231632,1.30841
1289389291632,1.32416
1289389351632,1.31263
1289389411632,1.30664
1289389471632,1.30455
1289389531632,1.30791
1289389591632,1.31382
1289389651632,1.31867
1289389711632,1.31169
1289389771632,1.31466
1289389831632,1.31886
1289389891632,1.30878
1289389951632,1.31144
1289390011632,1.31757
1289390071632,1.30654
1289390131632,1.31216
1289390191632,1.30367
1289390251632,1.31187
1289390311632,1.30411
1289390371632,1.31274
1289390431644,1.30668
1289390491644,1.30516
1289390551644,1.29982
1289390611644,1.31104
1289390671644,1.29146
1289390731644,1.31370
1289390791644,1.31771
1289390851644,1.31658
1289390911644,1.31160
1289390971644,1.31354
1289391031644,1.31324
1289391091644,1.30188
1289391151644,1.31886
1289391211644,1.31012
1289391271644,1.30919
1289391331644,1.31570
1289391391644,1.31706
1289391451644,1.30349
1289391511644,1.29744
1289391571644,1.31267
1289391631644,1.30628
1289391691644,1.31624
1289391751644,1.31834
1289391811644,1.31252
1289391871644,1.31743
1289391931644,1.31179
1289391991644,1.33441
1289392051644,1.30873
1289392111644,1.30098
1289392171644,1.31317
1289392231644,1.31800
1289392291644,1.31508
1289392351644,1.32427
1289392411644,1.32218
1289392471644,1.33462
1289392531644,1.33543
1289392591644,1.33709
1289392651644,1.33113
1289392711644,1.34618
1289392771644,1.33397
1289392831644,1.32539
1289392891644,1.32739
1289392951644,1.33162
1289393011644,1.33601
1289393071644,1.33638
1289393131644,1.34295
1289393191644,1.33195
1289393251644,1.32801
1289393311644,1.32178
1289393371644,1.34155
1289393431644,1.33402
1289393491644,1.32996
1289393551644,1.33360
1289393611644,1.33389
1289393671644,1.32743
1289393731644,1.34674
1289393791644,1.33830
1289393851644,1.33548
1289393911644,1.33238
1289393971644,1.32677
1289394031655,1.34063
1289394091655,1.33701
1289394151655,1.33764
1289394211655,1.33532
1289394271655,1.34007
1289394331655,1.34775
1289394391655,1.33706
1289394451655,1.34604
1289394511655,1.33896
1289394571655,1.34577
1289394631655,1.33935
1289394691655,1.34037
1289394751655,1.34270
1289394811655,1.33356
1289394871655,1.32707
1289394931655,1.32839
1289394991655,1.33395
1289395051655,1.33732
1289395111655,1.32705
1289395171655,1.33088
1289395231655,1.32448
1289395291655,1.33367
1289395351655,1.32693
1289395411655,1.32700
1289395471655,1.33069
1289395531655,1.33335
1289395591655,1.32730
1289395651655,1.32845
1289395711655,1.40402
1289395771655,1.32357
1289395831655,1.32750
1289395891655,1.31332
1289395951655,1.31402
1289396011655,1.32849
1289396071655,1.32148
1289396131655,1.32238
1289396191655,1.32212
1289396251655,1.31812
1289396311655,1.32349
1289396371655,1.32423
1289396431655,1.32981
1289396491655,1.32265
1289396551655,1.33173
1289396611655,1.32424
1289396671655,1.33447
1289396731655,1.32519
1289396791655,1.32590
1289396851655,1.32954
1289396911655,1.31672
1289396971655,1.32655
1289397031655,1.31700
1289397091655,1.31848
1289397151655,1.32829
1289397211655,1.31541
1289397271655,1.32372
1289397331655,1.33062
1289397391655,1.30732
1289397451655,1.30612
1289397511655,1.32649
1289397571655,1.31252
1289397631667,1.31801
1289397691667,1.31935
1289397751667,1.31330
1289397811667,1.30657
1289397871667,1.30760
1289397931667,1.30805
1289397991667,1.31087
1289398051667,1.31013
1289398111667,1.30938
1289398171667,1.31246
1289398231667,1.31364
1289398291667,1.31675
1289398351667,1.30690
1289398411667,1.30732
1289398471667,1.31555
1289398531667,1.32093
1289398591667,1.32487
1289398651667,1.32302
1289398711667,1.33222
1289398771667,1.32604
1289398831667,1.32374
1289398891667,1.33176
1289398951667,1.33009
1289399011667,1.34348
1289399071667,1.33728
1289399131667,1.33067
1289399191667,1.32873
1289399251667,1.32890
1289399311667,1.32805
1289399371667,1.31724
1289399431667,1.32348
1289399491667,1.31523
1289399551667,1.31922
1289399611667,1.32796
1289399671667,1.32280
1289399731667,1.32197
1289399791667,1.38875
1289399851667,1.31798
1289399911667,1.30951
1289399971667,1.31403
1289400031667,1.32010
1289400091667,1.30995
1289400151667,1.30783
1289400211667,1.31769
1289400271667,1.30914
1289400331667,1.31713
1289400391667,1.32452
1289400451667,1.32177
1289400511667,1.31199
1289400571667,1.31095
1289400631667,1.31470
1289400691667,1.30212
1289400751667,1.30775
1289400811667,1.30418
1289400871667,1.30493
1289400931667,1.31385
1289400991667,1.29660
1289401051667,1.31553
1289401111667,1.30401
1289401171667,1.30758
1289401231679,1.31546
1289401291679,1.30603
1289401351679,1.30667
1289401411679,1.30607
1289401471679,1.31655
1289401531679,1.30581
1289401591679,1.31289
1289401651679,1.31350
1289401711679,1.32094
1289401771679,1.31103
1289401831679,1.31689
1289401891679,1.31728
1289401951679,1.31464
1289402011679,1.31798
1289402071679,1.32166
1289402131679,1.30687
1289402191679,1.31716
1289402251679,1.32165
1289402311679,1.31399
1289402371679,1.32431
1289402431679,1.31701
1289402491679,1.31173
1289402551679,1.30914
1289402611679,1.31450
1289402671679,1.32439
1289402731679,1.31572
1289402791679,1.31869
1289402851679,1.31381
1289402911679,1.32420
1289402971679,1.31666
1289403031679,1.30932
1289403091679,1.30951
1289403151679,1.31327
1289403211679,1.30860
1289403271679,1.32234
1289403331679,1.31891
1289403391679,1.32578
1289403451679,1.30811
1289403511679,1.31863
1289403571679,1.31872
1289403631679,1.31745
1289403691679,1.31839
1289403751679,1.33102
1289403811679,1.31122
1289403871679,1.31631
1289403931679,1.30964
1289403991679,1.31456
1289404051679,1.31295
1289404111679,1.32524
1289404171679,1.31418
1289404231679,1.31461
1289404291679,1.31408
1289404351679,1.31794
1289404411679,1.31653
1289404471679,1.31853
1289404531679,1.31240
1289404591679,1.32141
1289404651679,1.31216
1289404711679,1.31773
1289404771679,1.32060
1289404831701,1.30975
1289404891700,1.31597
1289404951700,1.32472
1289405011701,1.31627
1289405071701,1.32026
1289405131701,1.31306
1289405191701,1.30420
1289405251701,1.31987
1289405311701,1.32502
1289405371701,1.31787
1289405431701,1.30863
1289405491701,1.32086
1289405551701,1.31036
1289405611701,1.31456
1289405671701,1.31068
1289405731701,1.32023
1289405791701,1.31051
1289405851701,1.30908
1289405911701,1.31119
1289405971701,1.30916
1289406031701,1.31844
1289406091701,1.31480
1289406151701,1.31157
1289406211700,1.31144
1289406271700,1.32622
1289406331700,1.27649
1289406391701,1.31752
1289406451701,1.31718
1289406511701,1.31957
1289406571701,1.32087
1289406631701,1.31815
1289406691701,1.31760
1289406751701,1.30912
1289406811701,1.31619
1289406871701,1.32163
1289406931701,1.32092
1289406991701,1.31690
1289407051701,1.33094
1289407111701,1.32884
1289407171701,1.32929
1289407231701,1.33019
1289407291701,1.33372
1289407351701,1.32908
1289407411701,1.34039
1289407471701,1.34770
1289407531701,1.34651
1289407591700,1.33620
1289407651700,1.34118
1289407711701,1.34505
1289407771701,1.34411
1289407831701,1.32644
1289407891701,1.34103
1289407951701,1.34878
1289408011701,1.33009
1289408071701,1.33676
1289408131701,1.33555
1289408191701,1.34599
1289408251701,1.34840
1289408311701,1.34554
1289408371701,1.34581
1289408431713,1.35251
1289408491713,1.34540
1289408551713,1.34342
1289408611713,1.34252
1289408671713,1.33960
1289408731713,1.35349
1289408791713,1.34070
1289408851713,1.35284
1289408911713,1.34240
1289408971713,1.35484
1289409031713,1.34345
1289409091713,1.33688
1289409631713,1.34555
1289409691713,1.34198
1289409751713,1.34234
1289409811713,1.33629
1289409871713,1.33507
1289409931713,1.33984
1289409991713,1.34968
1289410051713,1.34375
1289410111713,1.34582
1289410171713,1.33954
1289410231713,1.33592
1289410291713,1.33889
1289410351713,1.35065
1289410411713,1.33923
1289410471713,1.33989
1289410531713,1.33441
1289410591713,1.34620
1289410651713,1.33838
1289410711713,1.34700
1289410771713,1.33787
1289410831713,1.33693
1289410891713,1.34576
1289410951713,1.32708
1289411011713,1.33746
1289411071713,1.34023
1289411131713,1.34211
1289411191713,1.33716
1289411251713,1.34719
1289411311713,1.33521
1289411371713,1.32983
1289411431713,1.34179
1289411491713,1.33588
1289411551713,1.35470
1289411611713,1.34570
1289411671713,1.33377
1289411731713,1.33276
1289411791713,1.33675
1289411851713,1.35606
1289411911713,1.32918
1289411971713,1.34114
1289412031724,1.33905
1289412091724,1.34535
1289412151724,1.33958
1289412211724,1.33416
1289412271724,1.34157
1289412331724,1.32890
1289412391724,1.33677
1289412451724,1.32424
1289412511724,1.34095
1289412571724,1.33117
1289412631724,1.33558
1289412691724,1.33770
1289412751724,1.34170
1289412811724,1.34479
1289412871724,1.33415
1289412931724,1.32682
1289412991724,1.33707
1289413051724,1.33295